Weather History for Liberal, KS

Change the Weather History Date:

Monday, February 18, 2013

  Actual Average Record
Temperature  
Mean Temperature 36 °F -  
Max Temperature 50 °F 56 °F 82 °F (1970)
Min Temperature 19 °F 26 °F -4 °F (1942)
Degree Days  
Heating Degree Days 30    
Moisture  
Dew Point 16 °F    
Average Humidity 41    
Maximum Humidity 60    
Minimum Humidity 24    
Precipitation  
Precipitation 0.00 in - - ()
Sea Level Pressure  
Sea Level Pressure 29.89 in    
Wind  
Wind Speed 20 mph (NNW)    
Max Wind Speed 34 mph    
Max Gust Speed 43 mph    
Visibility 10 miles    
Events      
Averages and records for this station are not official NWS values.
T = Trace of Precipitation, MM = Missing Value Source: NWS Daily Summary

Daily Weather History Graph

Daily Weather History Graph

Search for Another Location

Airport:

Trip Planner

Search our weather history database for the weather conditions in past years. The results will help you decide how hot, cold, wet, or windy it might be!

Date:

Astronomy

Feb. 18, 2013 Rise Set
Actual Time 7:28 AM CST 6:27 PM CST
Civil Twilight 7:02 AM CST 6:53 PM CST
Nautical Twilight 6:31 AM CST 7:24 PM CST
Astronomical Twilight 6:01 AM CST 7:54 PM CST
Moon 12:18 PM CST (2/18) 2:06 AM CST (2/18)
Length of Visible Light 11h 51m
Length of Day
10h 58m
First Quarter, 58% of the Moon is Illuminated
Feb 18
First Quarter
Feb 25
Full
Mar 4
Last Quarter
Mar 11
New
Mar 19
First Quarter

Hourly Weather History & Observations

Time (CST) Temp. Windchill Dew Point Humidity Pressure Visibility Wind Dir Wind Speed Gust Speed Precip Events Conditions
12:15 AM 41.0 °F 32.2 °F 17.6 °F 39% 29.51 in 10.0 mi SW 18.4 mph - N/A   Clear
12:35 AM 41.0 °F 33.1 °F 15.8 °F 36% 29.52 in 10.0 mi WSW 15.0 mph - N/A   Clear
12:55 AM 39.2 °F 30.5 °F 15.8 °F 39% 29.52 in 10.0 mi WSW 16.1 mph - N/A   Clear
1:15 AM 37.4 °F 29.3 °F 12.2 °F 36% 29.54 in 10.0 mi West 12.7 mph - N/A   Clear
1:35 AM 42.8 °F 35.4 °F 12.2 °F 29% 29.55 in 10.0 mi West 15.0 mph - N/A   Clear
1:55 AM 42.8 °F 34.8 °F 10.4 °F 27% 29.56 in 10.0 mi NW 17.3 mph 21.9 mph N/A   Clear
2:15 AM 42.8 °F 34.3 °F 12.2 °F 29% 29.57 in 10.0 mi NNW 19.6 mph 24.2 mph N/A   Clear
2:35 AM 44.6 °F 34.9 °F 17.6 °F 34% 29.59 in 10.0 mi NNW 28.8 mph 36.8 mph N/A   Clear
2:55 AM 42.8 °F 33.3 °F 19.4 °F 39% 29.59 in 10.0 mi NNW 24.2 mph 29.9 mph N/A   Clear
3:15 AM 42.8 °F 33.3 °F 19.4 °F 39% 29.60 in 10.0 mi NNW 24.2 mph 32.2 mph N/A   Clear
3:35 AM 41.0 °F 30.9 °F 21.2 °F 45% 29.61 in 10.0 mi NNW 24.2 mph - N/A   Clear
3:55 AM 41.0 °F 31.1 °F 21.2 °F 45% 29.64 in 10.0 mi NNW 23.0 mph 28.8 mph N/A   Clear
4:15 AM 39.2 °F 28.7 °F 21.2 °F 49% 29.66 in 10.0 mi NNW 23.0 mph - N/A   Clear
4:35 AM 39.2 °F 28.7 °F 21.2 °F 49% 29.67 in 10.0 mi NNW 23.0 mph 32.2 mph N/A   Clear
4:55 AM 37.4 °F 26.6 °F 21.2 °F 52% 29.68 in 10.0 mi NNW 21.9 mph - N/A   Clear
5:15 AM 37.4 °F 26.9 °F 21.2 °F 52% 29.70 in 10.0 mi NNW 20.7 mph - N/A   Clear
5:35 AM 37.4 °F 25.9 °F 21.2 °F 52% 29.71 in 10.0 mi NNW 25.3 mph 31.1 mph N/A   Clear
5:55 AM 37.4 °F 26.6 °F 21.2 °F 52% 29.72 in 10.0 mi North 21.9 mph 28.8 mph N/A   Clear
6:15 AM 35.6 °F 24.0 °F 21.2 °F 56% 29.74 in 10.0 mi NNW 23.0 mph - N/A   Clear
6:35 AM 35.6 °F 23.7 °F 21.2 °F 56% 29.77 in 10.0 mi NNW 24.2 mph 31.1 mph N/A   Clear
6:55 AM 35.6 °F 24.2 °F 21.2 °F 56% 29.78 in 10.0 mi NNW 21.9 mph 29.9 mph N/A   Clear
7:15 AM 35.6 °F 24.2 °F 21.2 °F 56% 29.79 in 10.0 mi NNW 21.9 mph 26.5 mph N/A   Clear
7:35 AM 33.8 °F 22.5 °F 21.2 °F 60% 29.80 in 10.0 mi NNW 19.6 mph - N/A   Clear
7:55 AM 33.8 °F 22.2 °F 21.2 °F 60% 29.83 in 10.0 mi NNW 20.7 mph 26.5 mph N/A   Clear
8:15 AM 35.6 °F 23.4 °F 21.2 °F 56% 29.84 in 10.0 mi NNW 25.3 mph - N/A   Clear
8:35 AM 35.6 °F 23.2 °F 21.2 °F 56% 29.86 in 10.0 mi NNW 26.5 mph 29.9 mph N/A   Clear
8:55 AM 37.4 °F 25.2 °F 21.2 °F 52% 29.88 in 10.0 mi NNW 28.8 mph 34.5 mph N/A   Partly Cloudy
9:15 AM 37.4 °F 24.4 °F 21.2 °F 52% 29.90 in 10.0 mi NNW 33.4 mph 39.1 mph N/A   Scattered Clouds
9:35 AM 39.2 °F 27.0 °F 21.2 °F 49% 29.91 in 10.0 mi NNW 32.2 mph 39.1 mph N/A   Clear
9:55 AM 39.2 °F 27.0 °F 23.0 °F 52% 29.92 in 10.0 mi NNW 32.2 mph 42.6 mph N/A   Clear
10:15 AM 41.0 °F 29.5 °F 23.0 °F 49% 29.93 in 10.0 mi North 32.2 mph 39.1 mph N/A   Clear
10:35 AM 42.8 °F 31.6 °F 23.0 °F 46% 29.95 in 10.0 mi North 34.5 mph 42.6 mph N/A   Partly Cloudy
10:55 AM 42.8 °F 32.3 °F 23.0 °F 46% 29.96 in 10.0 mi NNW 29.9 mph 40.3 mph N/A   Partly Cloudy
11:15 AM 42.8 °F 32.3 °F 21.2 °F 42% 29.97 in 10.0 mi NNW 29.9 mph 36.8 mph N/A   Mostly Cloudy
11:35 AM 44.6 °F 34.7 °F 21.2 °F 39% 29.98 in 10.0 mi NNW 29.9 mph 38.0 mph N/A   Mostly Cloudy
11:55 AM 44.6 °F 34.7 °F 21.2 °F 39% 29.98 in 10.0 mi NNW 29.9 mph 34.5 mph N/A   Mostly Cloudy
12:15 PM 46.4 °F 37.5 °F 21.2 °F 37% 29.98 in 10.0 mi NNW 27.6 mph 34.5 mph N/A   Mostly Cloudy
12:35 PM 46.4 °F 37.9 °F 21.2 °F 37% 29.98 in 10.0 mi NNW 25.3 mph 38.0 mph N/A   Mostly Cloudy
12:55 PM 46.4 °F 37.7 °F 21.2 °F 37% 29.98 in 10.0 mi NNW 26.5 mph 36.8 mph N/A   Mostly Cloudy
1:15 PM 46.4 °F 37.9 °F 17.6 °F 32% 29.97 in 10.0 mi NNW 25.3 mph 34.5 mph N/A   Mostly Cloudy
1:35 PM 48.2 °F - 19.4 °F 32% 29.97 in 10.0 mi NNW 24.2 mph 34.5 mph N/A   Scattered Clouds
1:55 PM 48.2 °F - 19.4 °F 32% 29.97 in 10.0 mi North 29.9 mph 35.7 mph N/A   Scattered Clouds
2:15 PM 48.2 °F - 19.4 °F 32% 29.97 in 10.0 mi North 26.5 mph 34.5 mph N/A   Clear
2:35 PM 48.2 °F - 19.4 °F 32% 29.97 in 10.0 mi NNW 23.0 mph 34.5 mph N/A   Clear
2:55 PM 48.2 °F - 19.4 °F 32% 29.97 in 10.0 mi NNW 25.3 mph 33.4 mph N/A   Clear
3:15 PM 48.2 °F - 17.6 °F 30% 29.98 in 10.0 mi North 21.9 mph 27.6 mph N/A   Clear
3:35 PM 48.2 °F - 17.6 °F 30% 29.98 in 10.0 mi North 25.3 mph 31.1 mph N/A   Partly Cloudy
3:55 PM 50.0 °F - 17.6 °F 28% 29.98 in 10.0 mi NW 15.0 mph 34.5 mph N/A   Scattered Clouds
4:15 PM 48.2 °F - 15.8 °F 27% 29.99 in 10.0 mi North 23.0 mph 27.6 mph N/A   Partly Cloudy
4:35 PM 48.2 °F - 15.8 °F 27% 30.00 in 10.0 mi NNW 20.7 mph 27.6 mph N/A   Partly Cloudy
4:55 PM 48.2 °F - 15.8 °F 27% 30.00 in 10.0 mi North 20.7 mph 25.3 mph N/A   Clear
5:15 PM 48.2 °F - 14.0 °F 25% 30.01 in 10.0 mi NNW 18.4 mph 21.9 mph N/A   Clear
5:35 PM 48.2 °F - 12.2 °F 24% 30.02 in 10.0 mi North 15.0 mph - N/A   Clear
5:55 PM 46.4 °F 40.4 °F 12.2 °F 25% 30.03 in 10.0 mi North 13.8 mph - N/A   Clear
6:15 PM 44.6 °F 38.8 °F 12.2 °F 27% 30.04 in 10.0 mi North 11.5 mph - N/A   Clear
6:35 PM 41.0 °F 35.8 °F 10.4 °F 29% 30.04 in 10.0 mi North 8.1 mph - N/A   Clear
6:55 PM 37.4 °F 32.8 °F 10.4 °F 33% 30.05 in 10.0 mi North 5.8 mph - N/A   Clear
7:15 PM 37.4 °F 31.4 °F 10.4 °F 33% 30.04 in 10.0 mi NE 8.1 mph - N/A   Clear
7:35 PM 39.2 °F 32.0 °F 12.2 °F 33% 30.04 in 10.0 mi NNE 11.5 mph - N/A   Clear
7:55 PM 37.4 °F 31.4 °F 10.4 °F 33% 30.06 in 10.0 mi NNE 8.1 mph - N/A   Clear
8:15 PM 35.6 °F 29.9 °F 10.4 °F 35% 30.06 in 10.0 mi NE 6.9 mph - N/A   Clear
8:35 PM 32.0 °F 28.7 °F 8.6 °F 38% 30.08 in 10.0 mi NE 3.5 mph - N/A   Clear
8:55 PM 26.6 °F 22.6 °F 5.0 °F 40% 30.09 in 10.0 mi SW 3.5 mph - N/A   Clear
9:15 PM 26.6 °F 22.6 °F 6.8 °F 43% 30.10 in 10.0 mi SW 3.5 mph - N/A   Clear
9:35 PM 24.8 °F 19.1 °F 6.8 °F 46% 30.10 in 10.0 mi West 4.6 mph - N/A   Clear
9:55 PM 24.8 °F 17.9 °F 6.8 °F 46% 30.11 in 10.0 mi West 5.8 mph - N/A   Clear
10:15 PM 24.8 °F 19.1 °F 6.8 °F 46% 30.12 in 10.0 mi WNW 4.6 mph - N/A   Clear
10:35 PM 24.8 °F 20.5 °F 8.6 °F 50% 30.13 in 10.0 mi WNW 3.5 mph - N/A   Clear
10:55 PM 23.0 °F 18.4 °F 6.8 °F 50% 30.13 in 10.0 mi WNW 3.5 mph - N/A   Clear
11:15 PM 21.2 °F 16.4 °F 6.8 °F 54% 30.13 in 10.0 mi NW 3.5 mph - N/A   Clear
11:35 PM 23.0 °F 17.0 °F 8.6 °F 54% 30.13 in 10.0 mi NW 4.6 mph - N/A   Clear
11:55 PM 19.4 °F 12.8 °F 6.8 °F 58% 30.14 in 10.0 mi NNW 4.6 mph - N/A   Clear